Weather History for KABI - November, 2012

Change the Weather History Date:

Friday, November 30, 2012

  Actual Average Record
Temperature  
Mean Temperature 65 °F 49 °F  
Max Temperature 76 °F 60 °F 81 °F (1950)
Min Temperature 54 °F 37 °F 17 °F (1979)
Degree Days  
Heating Degree Days 0 16  
Month to date heating degree days 208 329  
Since 1 July heating degree days 342 433  
Cooling Degree Days 0 0  
Month to date cooling degree days 37 19  
Year to date cooling degree days 3033 2408  
Growing Degree Days 14 (Base 50)    
Moisture  
Dew Point 52 °F    
Average Humidity 68    
Maximum Humidity 93    
Minimum Humidity 43    
Precipitation  
Precipitation 0.00 in 0.03 in 0.62 in (1931)
Month to date precipitation 0.29 1.41  
Year to date precipitation 23.16 23.59  
Sea Level Pressure  
Sea Level Pressure 30.01 in    
Wind  
Wind Speed 13 mph (SSW)    
Max Wind Speed 22 mph    
Max Gust Speed 26 mph    
Visibility 9 miles    
Events      
T = Trace of Precipitation, MM = Missing Value Source: NWS Daily Summary

Daily Weather History Graph

Daily Weather History Graph

Search for Another Location

Airport or City:

Trip Planner

Search our weather history database for the weather conditions in past years. The results will help you decide how hot, cold, wet, or windy it might be!

Date:

Astronomy

Nov. 30, 2012 Rise Set
Actual Time 7:21 AM CST 5:33 PM CST
Civil Twilight 6:55 AM CST 5:59 PM CST
Nautical Twilight 6:24 AM CST 6:30 PM CST
Astronomical Twilight 5:55 AM CST 6:59 PM CST
Moon 7:28 PM CST (11/30) 8:55 AM CST (11/30)
Length of Visible Light 11h 04m
Length of Day
10h 11m
Waning Gibbous, 96% of the Moon is Illuminated
Nov 30
Waning Gibbous
Dec 6
Last Quarter
Dec 13
New
Dec 19
First Quarter
Dec 28
Full

Hourly Weather History & Observations

Time (CST) Temp. Dew Point Humidity Pressure Visibility Wind Dir Wind Speed Gust Speed Precip Events Conditions
12:52 AM 57.0 °F 52.0 °F 83% 30.04 in 10.0 mi South 16.1 mph 24.2 mph N/A   Clear
1:52 AM 55.9 °F 52.0 °F 87% 30.04 in 10.0 mi South 13.8 mph 24.2 mph N/A   Clear
2:52 AM 55.9 °F 52.0 °F 87% 30.03 in 10.0 mi SSW 15.0 mph 25.3 mph N/A   Clear
3:52 AM 55.0 °F 53.1 °F 93% 30.01 in 9.0 mi SSW 13.8 mph 21.9 mph N/A   Partly Cloudy
4:03 AM 55.4 °F 53.6 °F 94% 30.06 in 8.0 mi SSW 13.8 mph 21.9 mph N/A   Mostly Cloudy
4:52 AM 54.0 °F 52.0 °F 93% 30.02 in 7.0 mi South 12.7 mph - N/A   Mostly Cloudy
5:52 AM 54.0 °F 52.0 °F 93% 30.02 in 7.0 mi SSW 15.0 mph - N/A   Overcast
6:52 AM 54.0 °F 52.0 °F 93% 30.04 in 7.0 mi SSW 15.0 mph - N/A   Overcast
7:52 AM 55.9 °F 53.1 °F 90% 30.06 in 7.0 mi SSW 16.1 mph - N/A   Overcast
8:25 AM 55.4 °F 53.6 °F 94% 30.10 in 7.0 mi SW 12.7 mph - N/A   Scattered Clouds
8:52 AM 57.9 °F 53.1 °F 84% 30.07 in 7.0 mi SSW 12.7 mph - N/A   Partly Cloudy
9:52 AM 61.0 °F 53.1 °F 75% 30.07 in 7.0 mi SSW 17.3 mph 24.2 mph N/A   Clear
10:52 AM 64.0 °F 53.1 °F 67% 30.06 in 8.0 mi SSW 18.4 mph - N/A   Clear
11:52 AM 69.1 °F 53.1 °F 57% 30.04 in 10.0 mi SSW 16.1 mph - N/A   Clear
12:52 PM 71.1 °F 53.1 °F 53% 30.01 in 10.0 mi South 16.1 mph - N/A   Clear
1:52 PM 73.0 °F 52.0 °F 48% 29.98 in 10.0 mi SSW 11.5 mph 20.7 mph N/A   Clear
2:52 PM 75.0 °F 51.1 °F 43% 29.96 in 10.0 mi SSW 11.5 mph - N/A   Clear
3:52 PM 75.0 °F 51.1 °F 43% 29.95 in 10.0 mi South 13.8 mph - N/A   Clear
4:52 PM 73.9 °F 51.1 °F 45% 29.96 in 10.0 mi SSW 8.1 mph - N/A   Clear
5:52 PM 66.9 °F 50.0 °F 54% 29.96 in 10.0 mi SSE 6.9 mph - N/A   Clear
6:52 PM 64.0 °F 48.9 °F 58% 29.96 in 10.0 mi SSE 9.2 mph - N/A   Clear
7:52 PM 60.1 °F 48.0 °F 64% 29.97 in 10.0 mi SSE 8.1 mph - N/A   Clear
8:52 PM 59.0 °F 48.0 °F 67% 29.97 in 10.0 mi SSE 6.9 mph - N/A   Clear
9:52 PM 63.0 °F 50.0 °F 63% 29.96 in 10.0 mi South 9.2 mph - N/A   Clear
10:52 PM 63.0 °F 50.0 °F 63% 29.97 in 10.0 mi South 10.4 mph - N/A   Clear
11:52 PM 63.0 °F 51.1 °F 65% 29.97 in 10.0 mi South 12.7 mph - N/A   Clear